Theta_e
333 335 332 332 333 333 331 327 323 321 319 316 313 310 308 308 308 308 309 309 310 312 314 317 318 327 329 329 329 329 328 329 332 331 327 328 329 329 328 327 324 327 311
333 335 333 332 331 333 329 326 322 320 319 315 310 306 305 304 304 304 304 305 305 306 307 309 312 316 321 324 328 329 329 328 330 332 332 329 328 329 328 329 324 329 310
334 334 331 331 331 330 328 325 322 320 316 311 305 304 304 304 304 303 303 303 303 303 304 304 304 307 312 316 323 327 328 329 329 330 332 331 331 328 328 327 325 327 312
333 334 332 331 330 329 327 323 321 318 312 306 304 304 303 303 303 303 303 303 303 303 302 302 302 303 304 306 311 318 322 326 328 329 330 331 332 331 328 328 327 325 315
333 333 329 330 328 328 326 322 320 314 307 304 304 303 303 303 303 303 303 303 303 303 302 302 302 302 302 302 303 304 310 316 323 328 329 330 330 332 329 327 327 326 319
334 326 323 325 327 327 324 321 315 308 304 304 304 303 303 303 303 304 304 304 303 303 303 303 302 302 302 302 302 302 302 306 311 326 329 330 330 331 331 326 328 326 322
330 323 322 325 327 325 321 317 310 305 304 304 304 303 304 304 305 304 304 304 304 303 303 303 303 303 303 303 302 302 302 302 303 309 325 329 330 330 330 327 328 327 325
329 321 322 325 325 322 318 313 306 305 304 304 304 304 305 305 304 304 304 303 304 305 305 305 305 305 305 305 305 305 303 302 301 302 312 322 330 329 330 328 328 329 327
328 322 324 325 323 320 316 309 305 305 305 304 305 305 305 304 305 303 304 306 305 304 304 304 304 304 304 304 304 305 305 305 303 301 308 316 321 328 329 329 328 329 329
327 326 325 323 321 317 314 308 306 305 305 305 306 306 305 305 303 306 305 303 303 304 305 305 305 306 306 305 304 304 304 305 305 302 304 309 316 322 327 328 329 329 329
326 325 324 322 320 317 313 308 306 306 306 306 306 306 305 303 305 304 303 304 305 305 306 305 304 304 304 306 307 308 305 305 312 313 311 310 305 308 324 327 329 328 329
324 322 320 319 318 316 312 308 307 306 307 307 306 305 304 304 305 303 304 306 306 305 305 306 306 306 310 310 312 311 311 311 311 312 312 311 304 302 316 325 327 329 329
323 319 318 318 317 315 312 309 307 307 308 307 306 305 302 305 303 304 306 306 306 307 310 310 310 310 309 310 311 312 312 312 312 312 312 308 303 301 306 322 327 328 329
325 319 318 317 316 315 312 310 308 308 308 307 306 304 304 304 303 306 307 308 309 310 311 310 310 312 313 309 310 311 312 313 313 313 313 308 302 301 302 319 326 328 328
325 319 318 318 317 315 313 311 309 308 308 307 306 303 305 303 304 307 307 309 311 310 311 310 311 311 311 309 311 311 310 311 313 315 315 315 303 301 302 313 325 328 328
323 319 318 318 317 315 314 312 310 309 309 307 305 302 305 303 305 307 308 310 311 312 310 311 310 312 312 312 311 310 310 311 313 314 314 314 304 301 302 308 325 328 326
321 320 318 318 317 316 314 313 311 309 309 307 304 304 303 304 306 308 309 312 312 312 311 311 311 312 311 310 310 310 310 312 314 315 312 310 302 306 308 321 324 326 327
322 320 319 318 317 316 315 314 312 310 309 306 303 305 303 304 306 309 310 314 309 312 311 311 313 312 311 312 311 311 312 315 316 315 316 313 314 320 322 321 322 322 320
321 319 319 318 317 317 316 314 312 310 309 305 302 305 303 304 307 310 311 310 310 312 312 311 314 312 312 311 313 312 313 315 314 315 315 316 316 317 317 322 321 321 319
318 319 319 318 317 317 316 315 313 311 308 305 302 305 303 304 308 310 311 311 310 313 312 312 312 314 312 312 312 315 315 314 316 316 318 318 320 321 323 322 321 320 321
317 319 318 318 317 317 317 315 313 311 308 304 302 304 303 304 309 310 311 310 310 310 311 311 314 315 312 312 314 313 316 315 317 318 319 321 323 322 320 321 322 321 323
316 317 318 318 317 317 317 315 313 311 307 303 303 304 303 305 309 310 311 311 310 310 310 313 313 313 312 313 314 315 315 316 319 319 321 320 320 319 320 318 321 321 321
313 316 316 317 316 317 317 315 312 309 305 302 304 304 303 304 308 310 311 311 311 310 311 311 311 312 313 314 314 314 315 314 315 320 319 319 320 319 320 318 319 320 318
312 314 315 317 316 317 317 314 312 308 304 301 306 304 303 305 308 310 311 311 311 310 311 311 311 311 313 315 315 316 316 315 314 313 318 319 317 319 318 318 317 316 315
313 314 316 316 317 317 316 314 311 307 303 302 306 304 303 305 308 310 311 311 311 311 311 311 311 311 313 316 315 315 316 316 315 313 312 314 317 317 316 316 315 315 312
315 315 316 316 317 317 315 313 310 306 302 302 306 304 304 305 308 309 311 311 311 310 311 311 311 311 313 314 316 315 317 316 315 314 312 311 312 314 314 312 311 310 315
Wind_Speed
9 11 12 11 10 8 6 3 3 4 6 9 9 10 9 9 9 9 10 11 11 12 13 13 14 10 10 9 9 9 10 10 10 9 9 9 7 8 7 6 5 7 6
14 10 11 9 9 10 5 2 3 5 7 10 11 10 8 7 7 8 8 9 10 11 13 14 14 16 15 13 9 10 11 12 13 12 12 10 9 10 9 9 8 9 8
13 11 11 10 10 8 4 2 3 5 9 11 9 7 7 7 7 8 8 8 9 10 11 13 15 16 18 18 16 13 12 14 14 15 14 11 10 12 11 11 12 12 10
12 10 12 10 10 7 4 3 4 7 9 8 7 6 6 7 7 8 9 9 10 11 12 13 14 15 17 18 19 19 18 16 16 15 15 13 13 13 13 14 14 13 12
10 11 11 11 9 7 4 3 5 8 8 7 6 6 7 7 8 9 10 11 12 12 13 14 15 16 17 17 18 20 21 22 19 15 13 15 16 14 15 15 15 16 14
11 9 9 9 9 7 4 4 6 7 6 5 6 6 7 8 9 10 11 12 14 14 15 16 17 18 18 18 19 20 21 22 23 17 16 16 18 16 16 17 17 18 16
8 9 9 9 8 6 5 5 6 5 5 5 6 7 8 9 11 12 13 14 15 16 17 17 18 19 20 20 20 20 21 22 21 22 19 16 18 19 18 18 19 20 19
9 8 9 9 8 6 5 5 5 5 5 5 6 7 9 11 12 13 15 15 15 15 16 16 17 18 19 20 20 20 21 21 20 20 17 23 19 18 20 19 18 21 21
9 8 9 9 8 7 6 5 4 5 5 6 7 8 10 12 14 15 14 14 14 14 15 15 16 18 18 18 19 20 19 20 20 21 17 15 24 21 18 19 18 18 23
10 9 9 9 8 7 7 5 4 5 5 6 8 9 11 13 14 14 13 13 13 15 16 17 18 18 19 19 18 19 20 18 17 17 18 20 21 24 22 19 18 18 23
11 11 11 10 10 8 7 5 4 5 5 7 8 10 12 14 13 13 12 13 14 16 16 16 17 16 16 15 16 16 15 12 8 11 12 15 24 24 23 21 19 19 21
14 14 13 12 11 10 8 6 5 5 5 7 9 11 13 12 12 11 12 13 15 15 15 16 16 15 15 13 11 14 11 10 11 10 11 17 19 22 26 21 19 19 20
14 14 14 13 12 10 9 7 6 5 5 7 8 11 12 12 11 12 13 14 15 15 14 16 15 15 15 14 12 11 11 11 9 10 11 17 16 21 25 21 19 18 17
17 15 14 14 12 12 10 8 7 6 5 7 8 10 10 10 9 11 13 13 14 14 16 18 17 16 12 12 12 12 11 8 7 9 9 10 12 18 22 25 19 17 18
18 17 15 15 13 12 11 10 8 6 6 7 8 10 9 8 9 11 12 12 12 13 14 17 17 16 15 13 11 11 10 9 6 6 7 11 9 15 20 28 20 20 24
20 19 17 16 14 13 12 11 9 7 6 7 8 8 8 6 8 10 10 11 10 11 14 15 17 14 15 15 14 13 10 8 7 5 6 5 8 15 19 23 18 21 37
21 20 18 16 16 14 13 12 10 7 6 6 7 7 6 5 7 9 10 9 12 9 12 11 13 14 15 16 14 11 9 9 7 7 4 7 6 11 12 11 10 13 44
21 22 20 19 17 15 14 12 11 8 6 6 6 6 5 5 6 8 9 9 12 9 10 9 11 14 14 16 16 13 12 10 10 7 8 8 11 13 10 9 7 19 25
22 22 22 20 18 17 15 13 11 8 7 6 5 5 4 5 6 7 8 11 11 10 9 10 12 13 16 17 17 14 12 11 11 10 10 11 11 11 9 10 8 6 18
22 23 23 21 20 18 16 14 12 9 7 6 5 3 2 3 5 6 8 11 9 8 7 7 11 11 11 13 17 15 14 13 12 13 14 14 15 15 14 17 15 18 21
22 24 25 25 23 20 17 15 14 10 8 7 5 3 1 2 3 6 6 10 9 8 7 8 10 10 11 8 10 14 18 19 18 19 18 19 17 23 20 14 19 26 30
25 26 26 26 23 21 18 16 14 10 9 8 5 3 1 1 2 4 6 9 10 9 7 7 8 7 9 11 9 7 6 20 25 22 22 23 26 23 21 23 29 40 40
25 28 29 27 24 22 20 17 14 11 9 8 6 4 2 2 2 2 4 7 8 6 7 7 9 8 9 11 13 8 6 7 19 29 32 25 24 20 21 25 31 44 39
28 29 29 28 26 23 20 17 14 11 8 7 7 5 3 3 3 2 3 6 5 6 6 6 9 7 7 9 12 15 10 10 7 17 37 34 27 30 32 55 37 36 36
29 30 30 28 27 24 21 18 15 12 9 8 8 6 5 4 4 2 2 5 5 6 5 5 7 7 6 8 13 14 8 16 25 22 24 39 47 47 45 42 35 34 31
29 30 31 30 27 25 22 19 15 12 10 9 9 7 6 5 5 3 1 3 4 6 5 6 6 7 5 8 8 9 9 19 22 29 39 39 44 45 38 35 36 30 31
Wind_Direction
152 193 187 205 220 218 223 262 317 332 332 325 324 315 306 300 293 288 283 277 273 270 269 269 271 266 277 269 265 263 257 252 246 236 237 250 248 219 213 200 175 144 190
153 184 178 197 209 212 213 254 309 322 324 320 319 315 311 307 302 293 287 283 279 274 271 267 265 264 266 268 267 259 254 247 243 238 237 238 233 224 219 209 181 202 192
151 184 174 198 208 208 216 258 304 314 313 313 317 319 317 317 309 301 302 298 291 282 276 274 270 266 263 266 261 262 260 250 242 241 236 229 235 229 224 208 192 195 193
153 179 179 194 211 210 219 262 296 302 307 313 318 318 316 312 309 309 310 304 300 297 292 285 283 279 275 269 266 262 259 259 248 241 240 240 242 233 224 213 206 202 192
165 184 182 196 194 203 220 260 289 302 310 317 316 314 313 312 310 309 310 307 305 300 298 295 291 287 281 277 271 265 260 259 253 245 245 234 237 233 226 217 209 207 196
180 189 192 195 185 197 215 256 287 301 307 310 313 313 315 316 318 317 315 312 310 307 303 300 294 290 287 280 274 270 265 258 255 248 232 229 231 227 232 218 213 211 199
167 188 191 183 183 195 216 261 287 295 303 311 315 321 325 325 322 323 320 317 312 308 305 303 298 296 294 290 284 277 270 264 258 248 245 235 229 222 227 225 218 211 200
170 179 187 179 188 200 227 265 280 292 303 314 323 327 329 328 326 327 322 317 314 312 307 305 304 303 298 296 293 286 279 271 261 253 250 245 239 227 226 222 222 215 204
174 176 181 185 195 208 233 254 272 291 309 324 328 331 331 330 328 327 323 322 321 318 316 317 311 306 303 300 295 290 284 276 264 248 238 244 241 236 234 226 223 218 206
172 176 175 189 196 217 235 250 273 296 315 326 328 332 331 329 333 332 331 333 329 326 327 322 315 311 307 306 302 295 288 282 274 260 247 237 238 226 231 232 229 221 210
182 182 188 189 193 210 240 245 266 289 312 326 329 334 333 335 337 336 339 339 338 335 333 329 324 323 319 318 318 313 306 298 273 261 254 247 236 227 222 227 229 226 215
193 194 196 200 206 216 231 246 262 287 316 328 330 331 335 338 341 342 347 346 344 347 346 347 341 341 340 329 326 324 323 289 277 267 257 251 240 226 217 219 225 226 219
201 203 201 204 212 218 227 239 254 276 307 321 326 333 338 344 350 355 355 354 357 354 353 350 347 343 338 335 324 320 308 307 291 271 256 258 240 221 215 207 220 224 216
200 206 206 207 214 219 228 232 247 269 300 315 326 334 340 346 355 1 0 3 3 358 354 353 358 345 345 336 336 331 312 296 290 276 271 275 237 222 210 201 212 215 203
201 205 209 211 215 221 225 232 242 262 290 309 323 334 340 348 3 6 8 9 3 355 359 359 0 354 9 355 6 338 330 316 303 265 254 270 234 213 205 203 207 204 189
205 208 211 212 216 221 224 230 239 253 281 302 321 332 339 355 9 10 13 10 357 355 8 9 14 11 5 2 360 354 349 345 341 324 285 238 217 201 199 201 205 201 179
208 211 214 213 216 219 223 228 235 248 273 296 318 328 338 2 12 17 15 4 357 12 10 20 7 14 20 17 13 356 352 351 9 12 17 166 158 175 175 190 215 215 180
206 212 215 215 216 219 222 225 233 242 265 291 318 324 339 11 19 26 20 5 21 26 14 18 13 14 21 22 22 23 26 23 32 61 65 90 128 136 151 154 170 122 103
205 210 215 216 217 219 221 223 231 238 258 284 308 314 336 15 26 37 25 13 30 35 21 20 23 25 44 39 34 38 37 34 40 72 87 105 113 143 139 152 157 126 169
203 208 214 215 216 216 218 222 228 235 250 272 283 293 324 25 38 44 27 12 42 36 25 16 18 17 23 40 39 43 47 48 72 88 88 92 105 119 132 143 147 138 136
205 204 209 211 215 215 214 217 224 230 244 260 264 269 298 44 61 41 30 20 50 51 37 31 12 358 27 38 36 52 57 71 78 84 90 102 113 120 115 123 139 147 130
207 204 206 209 213 213 212 216 222 226 237 253 250 246 260 116 95 51 34 29 43 58 60 21 40 23 30 38 45 28 47 73 85 85 98 105 115 118 108 96 151 117 131
204 202 206 208 208 209 209 212 215 222 232 244 236 235 234 194 142 52 28 23 39 69 72 49 59 38 42 31 51 54 50 41 67 98 95 113 112 119 108 118 121 121 119
207 203 205 206 204 205 208 210 213 220 230 236 226 225 220 202 165 82 16 14 53 86 81 66 64 52 57 52 66 83 97 72 71 71 101 101 103 113 107 120 111 115 121
202 199 199 201 201 203 205 208 210 217 224 226 220 214 210 195 176 132 19 19 35 108 99 77 86 79 70 69 100 111 94 125 112 98 85 97 111 107 113 116 118 122 122
192 193 195 197 199 201 203 207 209 215 222 220 214 209 209 193 187 166 73 2 43 128 119 86 88 100 93 105 82 118 110 133 126 117 109 102 105 114 120 119 121 122 130